[[{"header":{"parameterUnit":"m.s-1","parameterCategory":1,"la1":30.2992,"la2":30.254,"lo1":-89.0895,"lo2":-89.0443,"dy":0.0025,"dx":0.0025,"nx":19,"ny":19,"refTime":"2026-03-23T09:00:00:Z","depth":0,"parameterNumber":2,"parameterNumberName":"U-component_of_WINDS"},"data":[0,0,0,0.8287,0.8288,0.8383,0.8383,0.8483,0.8484,0,0,0,0,0,0,0,0,0,0,0,0.8249,0.8249,0.8286,0.8289,0.8383,0.8383,0.8483,0.8484,0,0,0,0,0,0,0,0,0,0,0,0.8248,0.8249,0.8249,0.8289,0.8383,0.8383,0.8483,0.8418,0,0,0,0,0,0,0,0,0,0,0.833,0.8286,0.8249,0.8249,0.8289,0.8383,0.8383,0.8415,0.8422,0.8432,0,0.8441,0,0.8464,0.8489,0.849,0,0,0,0.8295,0.828,0.8315,0.8249,0.829,0.8382,0.8342,0.8419,0.8427,0.8441,0.8443,0.8447,0.8466,0.849,0.849,0.8534,0.8533,0,0,0.829,0.8259,0.831,0.832,0.8307,0.8339,0.8345,0.8424,0.8423,0.8443,0.845,0.8468,0.8491,0.8491,0.8534,0.8533,0,0,0,0.827,0.8255,0.8289,0.8315,0.8334,0.8342,0.8348,0.8419,0.8433,0.8451,0.8469,0.8491,0.8492,0.8534,0.8534,0.85,0,0,0,0.8268,0.8244,0.8286,0.8268,0.8332,0.8378,0.8341,0.8427,0.8437,0.8468,0.8491,0.8493,0.8534,0.8534,0.8501,0.8488,0,0,0,0.8246,0.8242,0.8253,0.8267,0.8307,0.8378,0.8396,0.843,0.8448,0.849,0.8493,0.8534,0.8534,0.8502,0.849,0.849,0,0,0,0.8213,0.8219,0.8251,0.8266,0.8306,0.8358,0.8396,0.8435,0.8467,0.8491,0.8534,0.8534,0.8503,0.8491,0.8491,0.8484,0.8479,0,0,0.8204,0.8217,0.8228,0.826,0.8299,0.8345,0.8379,0.8435,0.8465,0.8508,0.851,0.8501,0.849,0.849,0.8463,0.8458,0,0,0,0.8215,0.8222,0.8239,0.827,0.8316,0.8353,0.8408,0.8429,0.8468,0.8482,0.8503,0.8497,0.8498,0.8496,0.8493,0.8495,0.8532,0.8532,0.8532,0.8156,0.8198,0.8219,0.8272,0.8301,0.8359,0.8386,0.8424,0.8454,0.8458,0.8471,0.845,0.8446,0.8443,0.8446,0.8472,0.8472,0.8472,0.8472,0.8146,0.8162,0.8207,0.8243,0.8286,0.8315,0.8371,0.8392,0.8424,0.8443,0.8446,0.8462,0.8437,0.8441,0.8469,0.847,0.847,0.847,0.847,0.8111,0.8126,0.8154,0.8204,0.8237,0.829,0.832,0.8358,0.8393,0.8396,0.8413,0.8413,0.8417,0.8402,0.8402,0.8402,0.8402,0.8402,0.8402,0.8062,0.8096,0.8118,0.8169,0.8194,0.8232,0.8292,0.8317,0.8353,0.8378,0.8378,0.8407,0.8429,0.8432,0.8401,0.8401,0.8401,0.8401,0.8401,0.8032,0.8046,0.808,0.8106,0.8169,0.8199,0.8248,0.8296,0.8322,0.8335,0.8365,0.8376,0.839,0.8394,0.8397,0.8358,0.8358,0.8358,0.8358,0.8001,0.8014,0.8058,0.8097,0.8139,0.8188,0.8222,0.8269,0.8318,0.8337,0.8349,0.8356,0.8358,0.8372,0.8376,0.8379,0.8336,0.8336,0.8336,0.7984,0.8004,0.8026,0.8079,0.8132,0.8176,0.8209,0.8249,0.8308,0.8336,0.8352,0.8352,0.8366,0.8368,0.8393,0.8398,0.8405,0,0]},{"header":{"parameterUnit":"m.s-1","parameterCategory":1,"la1":30.2992,"la2":30.254,"lo1":-89.0895,"lo2":-89.0443,"dy":0.0025,"dx":0.0025,"nx":19,"ny":19,"refTime":"2026-03-23T09:00:00:Z","depth":0,"parameterNumber":3,"parameterNumberName":"V-component_of_WINDS"},"data":[0,0,0,-0.1872,-0.1868,-0.1713,-0.1712,-0.1506,-0.1505,0,0,0,0,0,0,0,0,0,0,0,-0.192,-0.1919,-0.1872,-0.1868,-0.1713,-0.1712,-0.1507,-0.1505,0,0,0,0,0,0,0,0,0,0,0,-0.1921,-0.1919,-0.1918,-0.1868,-0.1713,-0.1712,-0.1507,-0.1625,0,0,0,0,0,0,0,0,0,0,-0.1776,-0.1825,-0.192,-0.1918,-0.1867,-0.1713,-0.1712,-0.1631,-0.1618,-0.1576,0,-0.1546,0,-0.1523,-0.1491,-0.149,0,0,0,-0.1864,-0.1836,-0.1794,-0.1918,-0.1865,-0.1714,-0.1782,-0.1623,-0.1609,-0.1559,-0.1543,-0.1536,-0.152,-0.149,-0.1489,-0.1284,-0.1283,0,0,-0.1872,-0.1891,-0.1804,-0.1784,-0.1816,-0.1787,-0.1777,-0.1615,-0.1596,-0.1543,-0.1531,-0.1516,-0.1488,-0.1487,-0.1285,-0.1284,0,0,0,-0.19,-0.1897,-0.1858,-0.1793,-0.1766,-0.1782,-0.1771,-0.1603,-0.1589,-0.1528,-0.1514,-0.1487,-0.1485,-0.1285,-0.1284,-0.1272,0,0,0,-0.1905,-0.1914,-0.1862,-0.1872,-0.1769,-0.1684,-0.1763,-0.16,-0.1581,-0.1515,-0.1487,-0.1483,-0.1286,-0.1285,-0.1274,-0.1261,0,0,0,-0.1929,-0.1916,-0.1896,-0.1874,-0.1809,-0.1686,-0.1663,-0.1596,-0.1572,-0.149,-0.1482,-0.1287,-0.1285,-0.1276,-0.1264,-0.1217,0,0,0,-0.1958,-0.188,-0.1896,-0.1802,-0.181,-0.1682,-0.1664,-0.1564,-0.1492,-0.1486,-0.1286,-0.1284,-0.1276,-0.1266,-0.1219,-0.1183,-0.1169,0,0,-0.187,-0.187,-0.1813,-0.1824,-0.1699,-0.1704,-0.1573,-0.1484,-0.1453,-0.134,-0.1335,-0.1273,-0.1264,-0.1217,-0.1083,-0.1072,0,0,0,-0.1792,-0.1752,-0.1714,-0.1652,-0.1588,-0.1531,-0.1462,-0.1429,-0.1335,-0.1402,-0.1241,-0.1235,-0.1207,-0.1188,-0.1179,-0.1154,-0.1276,-0.1277,-0.1277,-0.1692,-0.1666,-0.1572,-0.1528,-0.1466,-0.14,-0.1346,-0.1289,-0.1272,-0.1235,-0.1202,-0.1125,-0.1104,-0.1097,-0.1072,-0.1179,-0.1179,-0.1178,-0.1178,-0.1562,-0.1503,-0.1492,-0.1398,-0.1369,-0.1285,-0.1216,-0.1209,-0.1125,-0.1146,-0.1119,-0.1147,-0.1087,-0.1063,-0.1177,-0.1177,-0.1177,-0.1178,-0.1178,-0.1496,-0.1463,-0.1431,-0.1342,-0.1274,-0.1228,-0.1152,-0.1125,-0.1097,-0.1071,-0.1035,-0.1035,-0.1033,-0.1056,-0.1055,-0.1055,-0.1055,-0.1055,-0.1055,-0.1441,-0.1405,-0.1348,-0.1279,-0.1238,-0.1179,-0.1113,-0.1069,-0.1012,-0.0998,-0.0998,-0.0987,-0.1087,-0.1114,-0.105,-0.1051,-0.1052,-0.1052,-0.1052,-0.1322,-0.1346,-0.1258,-0.1218,-0.1136,-0.1072,-0.104,-0.0954,-0.0913,-0.0876,-0.0872,-0.095,-0.0945,-0.0952,-0.0974,-0.0878,-0.0878,-0.0878,-0.0878,-0.1268,-0.1265,-0.1172,-0.1111,-0.1045,-0.1011,-0.0908,-0.0856,-0.0804,-0.0776,-0.0786,-0.0813,-0.0821,-0.0811,-0.0821,-0.0841,-0.0713,-0.0713,-0.0713,-0.1194,-0.1186,-0.1107,-0.1066,-0.1,-0.0943,-0.0847,-0.0771,-0.0715,-0.0706,-0.0755,-0.0762,-0.0804,-0.0819,-0.0811,-0.0826,-0.0863,0,0]}]]